Regional Weather Roundup
Issued by NWS State College, PA

Home | Current Version | Previous Version | Text Only | Print | Product List | Glossary On
Versions: 1 2 3 4 5 6 7 8 9 10 11 12 13 14 15 16 17 18 19 20 21 22 23 24 25 26 27 28 29 30 31 32 33 34 35 36 37 38 39 40 41 42 43 44 45 46 47 48 49 50
000
ASUS41 KCTP 041703
RWRCTP

REGIONAL WEATHER ROUNDUP
NATIONAL WEATHER SERVICE STATE COLLEGE PA
100 PM EDT FRI SEP 04 2015

Note: "fair" indicates few or no clouds below 12,000 feet with no
significant weather and/or obstructions to visibility.

* = STATION THAT DOES NOT REPORT PRECIPITATION /E.G. RAIN...SNOW...ETC/
    THUNDER OR FOG.

PAZ002>004-007>009-013>016-020>023-029>032-041800-
WESTERN PENNSYLVANIA

CITY           SKY/WX    TMP DP  RH WIND       PRES   REMARKS
ERIE           SUNNY     83  68  60 NW9       30.06S
MEADVILLE      MOSUNNY   82  61  48 S12G18    30.10S
FRANKLIN*      MOSUNNY   81  64  57 S6        30.12F
NEW CASTLE     FAIR      84  67  56 CALM      30.10F
BEAVER COUNTY  MOSUNNY   84  64  51 CALM      30.10F
BUTLER*        MOSUNNY   84  64  51 SW6       30.11F
PITTSBURGH INT PTSUNNY   83  61  47 SW6       30.10F
PITTSBURGH     SUNNY     83  60  45 S3        30.09F
INDIANA*       PTSUNNY   82  68  61 CALM      30.13F
LATROBE        MOSUNNY   82  68  61 NW6       30.11F
WASHINGTON CO* MOSUNNY   84  61  45 CALM      30.11F
$$

PAZ004>006-010>012-017>019-024>028-033>037-041-042-045-046-049>053-041800-
CENTRAL PENNSYLVANIA

CITY           SKY/WX    TMP DP  RH WIND       PRES   REMARKS
BRADFORD       PTSUNNY   80  64  58 SW8       30.13F
DUBOIS         MOSUNNY   85  65  51 VRB3      30.12S
CLEARFIELD     MOSUNNY   84  67  56 VRB3      30.12F
JOHNSTOWN      MOSUNNY   81  65  58 W6        30.14F
ALTOONA        PTSUNNY   85  66  53 VRB6      30.11F
STATE COLLEGE  NOT AVBL
WILLIAMSPORT   MOSUNNY   84  68  58 VRB6      30.06F
SELINSGROVE    SUNNY     86  69  56 VRB3      30.06F
FT INDIANTOWN  MOSUNNY   85  69  58 NE7       30.06S
CAPITAL CITY   SUNNY     87  67  51 E6        30.04F
HARRISBURG     MOSUNNY   90  66  45 CALM      30.04F
YORK           SUNNY     86  71  60 N6        30.06S
$$

PAZ038>040-043-044-047-048-054-055-060>062-067>071-041800-
EASTERN PENNSYLVANIA

CITY           SKY/WX    TMP DP  RH WIND       PRES   REMARKS
SCRANTON       MOSUNNY   86  68  54 NE8       30.09F
MOUNT POCONO   PTSUNNY   76  66  71 E9        30.16S
ALLENTOWN      MOSUNNY   86  70  58 NE6       30.08S
QUAKERTOWN*    MOSUNNY   86  70  58 E8        30.09S
READING        MOSUNNY   86  67  52 NE6       30.05S
LANCASTER      MOSUNNY   87  68  52 SE5       30.05F
COATESVILLE    MOSUNNY   84  68  58 NE5       30.08S
POTTSTOWN      MOSUNNY   85  68  56 VRB7      30.07F
BLUE BELL      MOSUNNY   86  72  62 E8        30.06S
DOYLESTOWN     LGT RAIN  78  70  76 CALM      30.08R
WILLOW GROVE   NOT AVBL
NORTH PHILA    MOSUNNY   87  67  51 E12       30.08R
PHILADELPHIA   PTSUNNY   92  68  45 NE9G17    30.04S HX  96
$$



USA.gov is the U.S. government's official web portal to all federal, state and local government web resources and services.